sat.trackr.live / text

‹ back to catalog

STARLINK-1460

NORAD 45676 · 2020-035V

PAYLOAD ACTIVE UNKNOWN

§ Identity

Operator
Country
US
Launch date
2020-06-04
Launch site
AFETR
Launch vehicle
Mass (kg)
RCS (m²)

Purposes: comms

External: N2YO · Heavens-Above · Gunter

§ Orbital elements

Epoch: 2026-05-25T03:49:13.289376Z

Period
93.89 min
Inclination
53.1567°
Eccentricity
0.0004168
Mean motion
15.33681562 rev/d
Perigee alt
462.0 km
Apogee alt
467.7 km
Semi-major
6,843.0 km
B*
1.6178e-3
RAAN
69.1619°
Arg perigee
99.2313°
Mean anomaly
260.9160°
Rev number
33,043

§ Raw data

STARLINK-14601 45676U 20035V   26145.15918159  .00053447  00000+0  16178-2 0  99922 45676  53.1567  69.1619 0004168  99.2313 260.9160 15.33681562330432

JSON: /api/v1/satellites/45676 · /tle

For live sub-satellite position, see the globe view (requires WebGL).

§ Visibility from observer

Set your observer location to see the next 7 days of passes ≥ 10°. The values pass through the URL so the page stays shareable.

No JS? Fill the form by hand. The geolocation button needs JavaScript.